Flag for Australia Weather past 2 weeks in Canberra, Australian Capital Territory, Australia

Now
57 °F

Clear.


Feels Like: 56 °F
Forecast: 51 / 71 °F
Wind: 7 mph from Northeast

Location: Canberra Airport

Current Time: Mar 5, 2015 at 10:26:04 PM

Latest Report: Mar 5, 2015 at 10:00 PM


Visibility: N/A

Pressure: 29.92 "Hg

Humidity: 39%

Dew point: 32 °F

Location of CanberraLocation

Historic Weather in Canberra — Graph

°F

Canberra temperature yesterday

Maximum temperature yesterday: 86 °F (at 4:00 PM)
Minimum temperature yesterday: 57 °F (at 1:02 AM)
Average temperature yesterday: 71 °F

Past Weeks' High & Low Weather Summary

 TemperatureHumidityPressure
High90 °F (Feb 23, 4:30 PM)100% (Feb 22, 5:00 AM)30.21 "Hg (Feb 22, 5:00 AM)
Low45 °F (Mar 2, 6:00 AM)15% (Mar 4, 6:30 PM)29.71 "Hg (Mar 1, 5:00 AM)
Average69 °F64%29.97 "Hg
* Reported Feb 18 9:00 PM — Mar 5 9:00 PM, Canberra, Weather by CustomWeather, © 2015

Note: Actual official high and low records may vary slightly from our data, if they occured in-between our weather recording intervals... More about our weather records

Advertising

Canberra weather history for previous 24 hours

 ConditionsComfort  
Time TempWeatherWind HumidityBarometerVisibility
9:00 PM
Thu, Mar 5
54 °FClear.2 mph35%29.89 "HgN/A
8:30 PM57 °FClear.6 mph29%29.86 "Hg10 mi
8:00 PM61 °FClear.6 mph27%29.86 "Hg10 mi
7:30 PM64 °FSunny.9 mph22%29.86 "Hg10 mi
7:00 PM68 °FSunny.14 mph18%29.83 "Hg10 mi
6:30 PM70 °FSunny.15 mph16%29.83 "Hg10 mi
6:00 PM72 °FSunny.10 mph20%29.83 "Hg10 mi
5:30 PM72 °FSunny.12 mph19%29.80 "Hg10 mi
5:00 PM73 °FSunny.9 mph17%29.80 "Hg10 mi
4:30 PM73 °FSunny.9 mph22%29.80 "Hg10 mi
4:00 PM73 °FSunny.6 mph22%29.80 "Hg10 mi
3:00 PM72 °FSunny.17 mph33%29.80 "Hg10 mi
2:00 PM73 °FSunny.13 mph25%29.80 "Hg10 mi
1:00 PM73 °FSunny.10 mph29%29.80 "Hg10 mi
12:30 PM72 °FSunny.13 mph27%29.83 "Hg10 mi
12:00 PM72 °FSunny.13 mph29%29.83 "Hg10 mi
11:30 AM70 °FSunny.13 mph31%29.83 "Hg10 mi
11:00 AM70 °FPassing clouds.14 mph31%29.83 "HgN/A
10:30 AM68 °FPassing clouds.15 mph35%29.80 "HgN/A
10:00 AM68 °FPassing clouds.13 mph35%29.80 "HgN/A
9:30 AM66 °FPassing clouds.7 mph37%29.80 "HgN/A
9:00 AM66 °FPassing clouds.10 mph43%29.80 "HgN/A
8:00 AM63 °FPassing clouds.12 mph45%29.74 "HgN/A
7:30 AM61 °FPassing clouds.15 mph48%29.74 "HgN/A
7:00 AM61 °FPassing clouds.14 mph48%29.74 "HgN/A
6:30 AM63 °FPassing clouds.10 mph45%29.74 "HgN/A
6:00 AM63 °FPassing clouds.18 mph45%29.74 "HgN/A
5:30 AM64 °FClear.22 mph43%29.71 "Hg10 mi
5:00 AM64 °FClear.18 mph40%29.74 "Hg10 mi
4:30 AM61 °FClear.8 mph39%29.74 "Hg10 mi
4:00 AM63 °FClear.6 mph34%29.74 "HgN/A
3:30 AM63 °FClear.13 mph34%29.74 "HgN/A
3:00 AM63 °FClear.10 mph34%29.77 "HgN/A
2:30 AM61 °FClear.10 mph36%29.77 "HgN/A
2:00 AM59 °FClear.6 mph36%29.80 "HgN/A
1:00 AM57 °FClear.No wind41%29.80 "HgN/A
12:30 AM55 °FClear.1 mph44%29.83 "HgN/A
12:00 AM57 °FClear.2 mph39%29.83 "HgN/A
11:30 PM
Wed, Mar 4
59 °FClear.No wind36%29.83 "HgN/A
11:00 PM63 °FClear.No wind30%29.86 "HgN/A
10:30 PM63 °FClear.No wind27%29.86 "HgN/A
10:00 PM64 °FClear.5 mph26%29.86 "HgN/A
Weather by CustomWeather, © 2015

See weather overviewHow to use our weather pages